UAE41T OMDB-VABB

Flight info

Callsign UAE41T
Flight time 2h 20m
Altitude 39000
Route IVURO M677 LALDO B505 NADSO A777 VAXIM L301 KARKU M638 EXOLU POKON2A
Aircraft A388/J-SADE2E3FGHIJ3J4J5M1RWXY/LB1D1

Departure

Time 2026-04-23 06:29
Airport Dubai International Airport (OMDB)

Arrival

Time 2026-04-23 08:50
Airport Chhatrapati Shivaji Maharaj International Airport (VABB)
Time Latitude Longitude Altitude Speed Heading
2026-04-23 05:56 25.24482 55.37143 26 ft 0 kts 211°
2026-04-23 06:16 25.24484 55.37145 26 ft 2 kts 211°
2026-04-23 06:16 25.24499 55.37153 26 ft 2 kts 207°
2026-04-23 06:16 25.24514 55.37160 26 ft 2 kts 201°
2026-04-23 06:17 25.24531 55.37165 25 ft 2 kts 192°
2026-04-23 06:17 25.24547 55.37166 25 ft 2 kts 180°
2026-04-23 06:17 25.24563 55.37163 24 ft 2 kts 162°
2026-04-23 06:17 25.24578 55.37154 26 ft 2 kts 143°
2026-04-23 06:18 25.24589 55.37141 25 ft 2 kts 129°
2026-04-23 06:18 25.24592 55.37135 26 ft 0 kts 124°
2026-04-23 06:22 25.24592 55.37136 27 ft 1 kts 124°
2026-04-23 06:23 25.24576 55.37162 27 ft 7 kts 124°
2026-04-23 06:23 25.24542 55.37221 27 ft 11 kts 121°
2026-04-23 06:23 25.24495 55.37308 27 ft 15 kts 121°
2026-04-23 06:23 25.24437 55.37412 27 ft 17 kts 124°
2026-04-23 06:24 25.24370 55.37530 27 ft 19 kts 121°
2026-04-23 06:24 25.24299 55.37658 27 ft 20 kts 121°
2026-04-23 06:24 25.24271 55.37715 27 ft 7 kts 100°
2026-04-23 06:24 25.24285 55.37767 27 ft 8 kts 50°
2026-04-23 06:25 25.24334 55.37818 28 ft 10 kts 34°
2026-04-23 06:25 25.24396 55.37862 32 ft 10 kts 33°
2026-04-23 06:25 25.24454 55.37908 35 ft 11 kts 34°
2026-04-23 06:25 25.24526 55.37963 34 ft 15 kts 34°
2026-04-23 06:26 25.24632 55.38042 30 ft 19 kts 33°
2026-04-23 06:26 25.24719 55.38096 35 ft 8 kts 17°
2026-04-23 06:26 25.24769 55.38084 35 ft 8 kts 319°
2026-04-23 06:26 25.24797 55.38045 35 ft 0 kts 301°
2026-04-23 06:27 25.24800 55.38040 35 ft 0 kts 302°
2026-04-23 06:28 25.24800 55.38039 35 ft 1 kts 302°
2026-04-23 06:28 25.24838 55.37972 35 ft 41 kts 302°
2026-04-23 06:28 25.25163 55.37396 36 ft 132 kts 302°
2026-04-23 06:29 25.25754 55.36324 92 ft 185 kts 301°
2026-04-23 06:29 25.26451 55.35048 455 ft 202 kts 301°
2026-04-23 06:29 25.27195 55.33686 936 ft 209 kts 300°
2026-04-23 06:29 25.27963 55.32294 1460 ft 217 kts 300°
2026-04-23 06:30 25.28888 55.30945 2032 ft 219 kts 318°
2026-04-23 06:30 25.30239 55.30132 2619 ft 229 kts 346°
2026-04-23 06:30 25.31843 55.29962 3227 ft 237 kts 358°
2026-04-23 06:30 25.33532 55.29877 3828 ft 247 kts 357°
2026-04-23 06:31 25.35277 55.29751 4460 ft 258 kts 356°
2026-04-23 06:31 25.37097 55.29640 5003 ft 271 kts 357°
2026-04-23 06:31 25.39003 55.29595 5501 ft 282 kts
2026-04-23 06:31 25.40921 55.30187 6001 ft 294 kts 29°
2026-04-23 06:32 25.42463 55.31694 6527 ft 303 kts 56°
2026-04-23 06:32 25.43387 55.33797 7194 ft 303 kts 70°
2026-04-23 06:32 25.44263 55.35895 8055 ft 299 kts 58°
2026-04-23 06:32 25.45354 55.37873 8712 ft 304 kts 59°
2026-04-23 06:33 25.46472 55.39892 9402 ft 309 kts 57°
2026-04-23 06:33 25.47641 55.41941 9955 ft 318 kts 58°
2026-04-23 06:33 25.48776 55.44025 10435 ft 327 kts 58°
2026-04-23 06:33 25.50179 55.46157 10646 ft 346 kts 49°
2026-04-23 06:34 25.51705 55.48243 10807 ft 364 kts 58°
2026-04-23 06:34 25.52670 55.50877 11303 ft 369 kts 81°
2026-04-23 06:34 25.52723 55.53681 11934 ft 367 kts 102°
2026-04-23 06:34 25.51962 55.56454 12578 ft 367 kts 114°
2026-04-23 06:35 25.50984 55.59069 13214 ft 368 kts 117°
2026-04-23 06:35 25.49974 55.61649 13847 ft 371 kts 117°
2026-04-23 06:35 25.48973 55.64280 14424 ft 374 kts 116°
2026-04-23 06:35 25.48006 55.66968 14869 ft 378 kts 114°
2026-04-23 06:36 25.47074 55.69695 15002 ft 380 kts 114°
2026-04-23 06:36 25.46169 55.72440 15007 ft 379 kts 113°
2026-04-23 06:36 25.45286 55.75189 15007 ft 378 kts 112°
2026-04-23 06:36 25.44412 55.77933 15008 ft 378 kts 112°
2026-04-23 06:37 25.43537 55.80680 15002 ft 378 kts 112°
2026-04-23 06:37 25.42661 55.83414 14999 ft 378 kts 112°
2026-04-23 06:37 25.41787 55.86125 15004 ft 378 kts 113°
2026-04-23 06:37 25.40863 55.88851 15005 ft 377 kts 114°
2026-04-23 06:38 25.39900 55.91555 15006 ft 377 kts 115°
2026-04-23 06:38 25.38925 55.94315 15005 ft 377 kts 113°
2026-04-23 06:38 25.38070 55.97018 15007 ft 378 kts 111°
2026-04-23 06:38 25.37250 55.99776 15010 ft 377 kts 111°
2026-04-23 06:39 25.36432 56.02534 15010 ft 377 kts 111°
2026-04-23 06:39 25.35594 56.05297 15006 ft 377 kts 111°
2026-04-23 06:39 25.34744 56.08037 15015 ft 377 kts 112°
2026-04-23 06:39 25.33877 56.10771 15021 ft 376 kts 112°
2026-04-23 06:40 25.33003 56.13489 15018 ft 376 kts 111°
2026-04-23 06:40 25.32302 56.16285 15011 ft 379 kts 104°
2026-04-23 06:40 25.31952 56.19172 15014 ft 381 kts 97°
2026-04-23 06:40 25.31787 56.22104 15013 ft 380 kts 95°
2026-04-23 06:41 25.31659 56.25028 15012 ft 381 kts 95°
2026-04-23 06:41 25.31518 56.27952 15016 ft 380 kts 96°
2026-04-23 06:41 25.31355 56.30813 15016 ft 380 kts 96°
2026-04-23 06:41 25.31162 56.33789 15009 ft 380 kts 97°
2026-04-23 06:42 25.30955 56.36699 15022 ft 380 kts 97°
2026-04-23 06:42 25.30740 56.39563 15016 ft 379 kts 96°
2026-04-23 06:42 25.30593 56.42469 15019 ft 379 kts 95°
2026-04-23 06:42 25.30468 56.45383 15022 ft 379 kts 95°
2026-04-23 06:43 25.30357 56.48289 15011 ft 379 kts 95°
2026-04-23 06:43 25.30256 56.51168 15019 ft 378 kts 95°
2026-04-23 06:43 25.30144 56.54097 15074 ft 379 kts 95°
2026-04-23 06:43 25.30037 56.57025 15428 ft 382 kts 95°
2026-04-23 06:44 25.29800 56.59954 16043 ft 382 kts 100°
2026-04-23 06:44 25.29281 56.62842 16552 ft 384 kts 109°
2026-04-23 06:44 25.28297 56.65579 17091 ft 385 kts 118°
2026-04-23 06:44 25.27089 56.68235 17613 ft 388 kts 120°
2026-04-23 06:45 25.25845 56.70892 18138 ft 392 kts 120°
2026-04-23 06:45 25.24626 56.73605 18566 ft 396 kts 118°
2026-04-23 06:45 25.23463 56.76382 19019 ft 400 kts 117°
2026-04-23 06:45 25.22349 56.79197 19447 ft 403 kts 116°
2026-04-23 06:46 25.21248 56.82069 19869 ft 407 kts 115°
2026-04-23 06:46 25.20170 56.84916 20272 ft 410 kts 116°
2026-04-23 06:46 25.19034 56.87810 20701 ft 413 kts 117°
2026-04-23 06:46 25.17851 56.90723 21113 ft 417 kts 117°
2026-04-23 06:47 25.16658 56.93730 21527 ft 421 kts 116°
2026-04-23 06:47 25.15565 56.96690 21932 ft 425 kts 114°
2026-04-23 06:47 25.14483 56.99741 22327 ft 428 kts 114°
2026-04-23 06:47 25.13390 57.02814 22733 ft 432 kts 114°
2026-04-23 06:48 25.12270 57.05905 23130 ft 435 kts 115°
2026-04-23 06:48 25.11128 57.09000 23512 ft 438 kts 115°
2026-04-23 06:48 25.09960 57.12118 23870 ft 440 kts 115°
2026-04-23 06:48 25.08774 57.15247 24221 ft 443 kts 115°
2026-04-23 06:49 25.07575 57.18388 24577 ft 445 kts 115°
2026-04-23 06:49 25.06363 57.21546 24920 ft 448 kts 115°
2026-04-23 06:49 25.05158 57.24671 25287 ft 450 kts 115°
2026-04-23 06:49 25.03911 57.27900 25646 ft 453 kts 115°
2026-04-23 06:50 25.02671 57.31098 26043 ft 456 kts 115°
2026-04-23 06:50 25.01433 57.34296 26445 ft 459 kts 115°
2026-04-23 06:50 25.00183 57.37538 26859 ft 462 kts 115°
2026-04-23 06:50 24.98920 57.40812 27300 ft 465 kts 115°
2026-04-23 06:51 24.97647 57.44110 27722 ft 468 kts 115°
2026-04-23 06:51 24.96364 57.47431 28156 ft 472 kts 114°
2026-04-23 06:51 24.95071 57.50771 28599 ft 475 kts 114°
2026-04-23 06:51 24.93771 57.54125 29017 ft 478 kts 114°
2026-04-23 06:52 24.92459 57.57506 29456 ft 482 kts 114°
2026-04-23 06:52 24.91148 57.60882 29896 ft 485 kts 114°
2026-04-23 06:52 24.89820 57.64303 30252 ft 489 kts 114°
2026-04-23 06:52 24.88472 57.67769 30582 ft 494 kts 114°
2026-04-23 06:53 24.87113 57.71259 30913 ft 498 kts 114°
2026-04-23 06:53 24.85742 57.74783 31241 ft 502 kts 114°
2026-04-23 06:53 24.84362 57.78309 31576 ft 506 kts 114°
2026-04-23 06:53 24.82913 57.81900 31886 ft 511 kts 114°
2026-04-23 06:54 24.81463 57.85490 32212 ft 515 kts 115°
2026-04-23 06:54 24.79957 57.89084 32535 ft 519 kts 115°
2026-04-23 06:54 24.78404 57.92694 32843 ft 523 kts 116°
2026-04-23 06:54 24.76824 57.96319 33163 ft 528 kts 116°
2026-04-23 06:55 24.75218 57.99976 33476 ft 532 kts 116°
2026-04-23 06:55 24.73623 58.03600 33776 ft 536 kts 115°
2026-04-23 06:55 24.72523 58.06097 33972 ft 539 kts 115°
2026-04-23 06:55 24.70326 58.11088 34338 ft 544 kts 115°
2026-04-23 06:56 24.68712 58.14755 34637 ft 546 kts 116°
2026-04-23 06:56 24.67579 58.17317 34898 ft 547 kts 116°
2026-04-23 06:56 24.65904 58.21069 35275 ft 548 kts 116°
2026-04-23 06:56 24.64170 58.24883 35667 ft 549 kts 116°
2026-04-23 06:57 24.62499 58.28651 36036 ft 550 kts 116°
2026-04-23 06:57 24.60843 58.32465 36399 ft 551 kts 115°
2026-04-23 06:57 24.59198 58.36271 36773 ft 552 kts 116°
2026-04-23 06:57 24.57571 58.40037 37143 ft 553 kts 116°
2026-04-23 06:58 24.55916 58.43855 37513 ft 554 kts 116°
2026-04-23 06:58 24.54231 58.47728 37876 ft 554 kts 116°
2026-04-23 06:58 24.52589 58.51490 38270 ft 554 kts 116°
2026-04-23 06:58 24.50916 58.55312 38608 ft 555 kts 116°
2026-04-23 06:59 24.49238 58.59130 38819 ft 558 kts 116°
2026-04-23 06:59 24.47526 58.63009 38865 ft 555 kts 116°
2026-04-23 06:59 24.44181 58.70575 38855 ft 555 kts 117°
2026-04-23 07:00 24.40797 58.78202 38856 ft 555 kts 117°
2026-04-23 07:00 24.37398 58.85844 38853 ft 554 kts 117°
2026-04-23 07:01 24.34027 58.93411 38855 ft 555 kts 116°
2026-04-23 07:01 24.30631 59.01024 38872 ft 556 kts 117°
2026-04-23 07:02 24.27227 59.08641 38884 ft 556 kts 117°
2026-04-23 07:02 24.23819 59.16253 38889 ft 556 kts 116°
2026-04-23 07:03 24.20420 59.23838 38886 ft 554 kts 116°
2026-04-23 07:03 24.17020 59.31414 38880 ft 552 kts 116°
2026-04-23 07:04 24.13627 59.38960 38873 ft 550 kts 116°
2026-04-23 07:04 24.10264 59.46427 38866 ft 549 kts 117°
2026-04-23 07:05 24.06876 59.53930 38857 ft 547 kts 116°
2026-04-23 07:05 24.03499 59.61404 38854 ft 545 kts 116°
2026-04-23 07:06 24.00142 59.68833 38849 ft 544 kts 116°
2026-04-23 07:06 23.96785 59.76244 38849 ft 542 kts 116°
2026-04-23 07:07 23.93436 59.83623 38846 ft 541 kts 116°
2026-04-23 07:07 23.90088 59.90988 38844 ft 540 kts 116°
2026-04-23 07:08 23.86740 59.98338 38844 ft 539 kts 116°
2026-04-23 07:08 23.83422 60.05611 38842 ft 538 kts 116°
2026-04-23 07:09 23.80067 60.12957 38843 ft 537 kts 116°
2026-04-23 07:09 23.76724 60.20263 38847 ft 537 kts 116°
2026-04-23 07:10 23.73402 60.27505 38850 ft 537 kts 116°
2026-04-23 07:10 23.70062 60.34784 38850 ft 536 kts 116°
2026-04-23 07:11 23.66716 60.42063 38851 ft 536 kts 116°
2026-04-23 07:12 23.61695 60.52963 38856 ft 536 kts 116°
2026-04-23 07:12 23.58332 60.60253 38855 ft 535 kts 116°
2026-04-23 07:13 23.54999 60.67472 38857 ft 535 kts 116°
2026-04-23 07:13 23.51642 60.74728 38864 ft 535 kts 116°
2026-04-23 07:14 23.48292 60.81956 38861 ft 534 kts 116°
2026-04-23 07:14 23.44950 60.89153 38863 ft 533 kts 116°
2026-04-23 07:15 23.41593 60.96370 38858 ft 533 kts 116°
2026-04-23 07:15 23.38245 61.03564 38867 ft 532 kts 116°
2026-04-23 07:16 23.34896 61.10748 38862 ft 532 kts 116°
2026-04-23 07:16 23.32042 61.18165 38863 ft 530 kts 105°
2026-04-23 07:17 23.30542 61.25982 38866 ft 527 kts 94°
2026-04-23 07:17 23.29992 61.33919 38865 ft 526 kts 91°
2026-04-23 07:18 23.29478 61.41873 38872 ft 526 kts 92°
2026-04-23 07:18 23.28859 61.49795 38875 ft 526 kts 93°
2026-04-23 07:19 23.28173 61.57714 38876 ft 525 kts 94°
2026-04-23 07:19 23.27462 61.65618 38883 ft 525 kts 94°
2026-04-23 07:20 23.26744 61.73515 38881 ft 525 kts 94°
2026-04-23 07:20 23.26025 61.81405 38875 ft 524 kts 94°
2026-04-23 07:21 23.25307 61.89240 38871 ft 524 kts 94°
2026-04-23 07:21 23.24582 61.97126 38874 ft 523 kts 94°
2026-04-23 07:22 23.23856 62.04991 38878 ft 523 kts 94°
2026-04-23 07:22 23.23117 62.12937 38879 ft 523 kts 94°
2026-04-23 07:23 23.22378 62.20851 38876 ft 537 kts 94°
2026-04-23 07:23 23.21610 62.29041 38876 ft 543 kts 94°
2026-04-23 07:24 23.20841 62.37171 38879 ft 543 kts 94°
2026-04-23 07:24 23.20064 62.45339 38874 ft 543 kts 95°
2026-04-23 07:25 23.19284 62.53494 38878 ft 543 kts 95°
2026-04-23 07:25 23.18497 62.61663 38887 ft 543 kts 95°
2026-04-23 07:26 23.17706 62.69823 38887 ft 543 kts 95°
2026-04-23 07:26 23.16912 62.77976 38887 ft 543 kts 95°
2026-04-23 07:27 23.16117 62.86085 38888 ft 542 kts 95°
2026-04-23 07:27 23.15314 62.94232 38888 ft 543 kts 95°
2026-04-23 07:28 23.14505 63.02399 38890 ft 542 kts 95°
2026-04-23 07:28 23.13693 63.10545 38883 ft 543 kts 95°
2026-04-23 07:29 23.12876 63.18697 38889 ft 542 kts 95°
2026-04-23 07:29 23.12053 63.26858 38886 ft 542 kts 95°
2026-04-23 07:30 23.11367 63.33634 38889 ft 543 kts 95°
2026-04-23 07:30 23.10404 63.43103 38885 ft 543 kts 95°
2026-04-23 07:31 23.09569 63.51270 38885 ft 544 kts 95°
2026-04-23 07:31 23.08729 63.59441 38882 ft 544 kts 95°
2026-04-23 07:32 23.07885 63.67613 38885 ft 544 kts 95°
2026-04-23 07:32 23.07037 63.75787 38885 ft 545 kts 95°
2026-04-23 07:33 23.06137 63.83953 38885 ft 546 kts 98°
2026-04-23 07:33 23.04700 63.90651 38885 ft 548 kts 107°
2026-04-23 07:34 23.01966 63.98263 38883 ft 549 kts 113°
2026-04-23 07:34 22.98917 64.05859 38884 ft 548 kts 113°
2026-04-23 07:35 22.95917 64.13476 38883 ft 548 kts 112°
2026-04-23 07:35 22.92989 64.21105 38889 ft 548 kts 112°
2026-04-23 07:36 22.90084 64.28761 38887 ft 548 kts 112°
2026-04-23 07:36 22.87208 64.36356 38882 ft 548 kts 112°
2026-04-23 07:37 22.84305 64.44007 38885 ft 547 kts 112°
2026-04-23 07:37 22.81399 64.51648 38886 ft 548 kts 112°
2026-04-23 07:38 22.78494 64.59278 38882 ft 547 kts 112°
2026-04-23 07:38 22.75581 64.66905 38884 ft 547 kts 112°
2026-04-23 07:39 22.72666 64.74523 38885 ft 547 kts 112°
2026-04-23 07:39 22.69748 64.82141 38887 ft 547 kts 112°
2026-04-23 07:40 22.66826 64.89756 38889 ft 547 kts 112°
2026-04-23 07:40 22.63920 64.97321 38887 ft 547 kts 112°
2026-04-23 07:41 22.60992 65.04927 38890 ft 547 kts 112°
2026-04-23 07:41 22.58063 65.12519 38884 ft 546 kts 112°
2026-04-23 07:42 22.55134 65.20104 38884 ft 546 kts 112°
2026-04-23 07:42 22.52203 65.27681 38887 ft 546 kts 112°
2026-04-23 07:43 22.49266 65.35260 38884 ft 546 kts 112°
2026-04-23 07:43 22.46323 65.42845 38884 ft 546 kts 112°
2026-04-23 07:44 22.43401 65.50362 38883 ft 545 kts 112°
2026-04-23 07:44 22.40453 65.57931 38883 ft 544 kts 112°
2026-04-23 07:45 22.37514 65.65466 38884 ft 545 kts 112°
2026-04-23 07:45 22.34566 65.73009 38884 ft 544 kts 112°
2026-04-23 07:46 22.31638 65.80493 38884 ft 544 kts 112°
2026-04-23 07:46 22.28695 65.88004 38884 ft 543 kts 112°
2026-04-23 07:47 22.25740 65.95531 38882 ft 543 kts 112°
2026-04-23 07:47 22.22788 66.03036 38885 ft 542 kts 112°
2026-04-23 07:48 22.19855 66.10481 38881 ft 542 kts 112°
2026-04-23 07:48 22.16906 66.17959 38882 ft 541 kts 112°
2026-04-23 07:49 22.13955 66.25430 38885 ft 541 kts 112°
2026-04-23 07:49 22.11006 66.32884 38881 ft 540 kts 112°
2026-04-23 07:50 22.08058 66.40325 38883 ft 540 kts 112°
2026-04-23 07:50 22.05110 66.47763 38882 ft 539 kts 112°
2026-04-23 07:51 22.02161 66.55184 38886 ft 539 kts 112°
2026-04-23 07:51 21.99204 66.62610 38883 ft 539 kts 112°
2026-04-23 07:52 21.96242 66.70039 38883 ft 538 kts 112°
2026-04-23 07:52 21.93287 66.77437 38884 ft 538 kts 112°
2026-04-23 07:53 21.90328 66.84834 38880 ft 538 kts 112°
2026-04-23 07:53 21.87369 66.92222 38874 ft 537 kts 113°
2026-04-23 07:54 21.84407 66.99602 38880 ft 537 kts 113°
2026-04-23 07:54 21.81439 67.06989 38883 ft 537 kts 113°
2026-04-23 07:55 21.78468 67.14371 38880 ft 537 kts 113°
2026-04-23 07:55 21.75499 67.21739 38885 ft 537 kts 113°
2026-04-23 07:56 21.72549 67.29052 38880 ft 537 kts 113°
2026-04-23 07:56 21.69575 67.36413 38881 ft 536 kts 113°
2026-04-23 07:57 21.66595 67.43771 38881 ft 536 kts 113°
2026-04-23 07:57 21.63648 67.51048 38878 ft 536 kts 113°
2026-04-23 07:58 21.60697 67.58421 38880 ft 536 kts 113°
2026-04-23 07:58 21.57705 67.65760 38876 ft 536 kts 113°
2026-04-23 07:59 21.54694 67.73100 38879 ft 536 kts 113°
2026-04-23 07:59 21.51692 67.80432 38878 ft 535 kts 113°
2026-04-23 08:00 21.48716 67.87704 38876 ft 535 kts 113°
2026-04-23 08:00 21.45728 67.95009 38884 ft 535 kts 113°
2026-04-23 08:01 21.42734 68.02318 38877 ft 534 kts 113°
2026-04-23 08:01 21.39736 68.09632 38874 ft 535 kts 113°
2026-04-23 08:02 21.36735 68.16944 38884 ft 535 kts 113°
2026-04-23 08:02 21.33737 68.24234 38875 ft 534 kts 113°
2026-04-23 08:03 21.30738 68.31514 38868 ft 534 kts 113°
2026-04-23 08:03 21.27729 68.38804 38871 ft 534 kts 113°
2026-04-23 08:04 21.24725 68.46075 38870 ft 533 kts 114°
2026-04-23 08:04 21.21731 68.53313 38871 ft 533 kts 114°
2026-04-23 08:05 21.18723 68.60571 38875 ft 533 kts 114°
2026-04-23 08:05 21.15709 68.67831 38876 ft 533 kts 114°
2026-04-23 08:06 21.12694 68.75087 38874 ft 533 kts 114°
2026-04-23 08:06 21.09678 68.82334 38876 ft 533 kts 114°
2026-04-23 08:07 21.06661 68.89575 38871 ft 532 kts 114°
2026-04-23 08:07 21.03641 68.96814 38863 ft 532 kts 114°
2026-04-23 08:08 21.00620 69.04041 38868 ft 532 kts 114°
2026-04-23 08:08 20.97619 69.11265 38865 ft 532 kts 112°
2026-04-23 08:09 20.95090 69.18644 38866 ft 531 kts 108°
2026-04-23 08:09 20.92766 69.26149 38866 ft 531 kts 107°
2026-04-23 08:10 20.90509 69.33657 38867 ft 531 kts 107°
2026-04-23 08:10 20.87120 69.44921 38865 ft 531 kts 107°
2026-04-23 08:11 20.84843 69.52443 38866 ft 531 kts 107°
2026-04-23 08:11 20.82559 69.59969 38867 ft 531 kts 107°
2026-04-23 08:12 20.80278 69.67471 38864 ft 531 kts 108°
2026-04-23 08:12 20.77991 69.74977 38863 ft 531 kts 108°
2026-04-23 08:13 20.75718 69.82425 38865 ft 531 kts 108°
2026-04-23 08:13 20.73426 69.89925 38864 ft 530 kts 108°
2026-04-23 08:14 20.71128 69.97431 38856 ft 531 kts 108°
2026-04-23 08:14 20.68831 70.04921 38859 ft 531 kts 108°
2026-04-23 08:15 20.66530 70.12408 38856 ft 531 kts 108°
2026-04-23 08:15 20.64227 70.19886 38864 ft 531 kts 108°
2026-04-23 08:16 20.61912 70.27381 38856 ft 531 kts 108°
2026-04-23 08:16 20.59596 70.34886 38858 ft 531 kts 108°
2026-04-23 08:17 20.57287 70.42359 38859 ft 531 kts 108°
2026-04-23 08:17 20.54971 70.49833 38857 ft 531 kts 108°
2026-04-23 08:18 20.53040 70.56059 38855 ft 530 kts 108°
2026-04-23 08:18 20.50339 70.64756 38856 ft 531 kts 108°
2026-04-23 08:19 20.49176 70.68494 38747 ft 528 kts 108°
2026-04-23 08:19 20.48401 70.70985 38596 ft 520 kts 108°
2026-04-23 08:19 20.47275 70.74603 38338 ft 509 kts 108°
2026-04-23 08:19 20.46169 70.78154 38063 ft 500 kts 108°
2026-04-23 08:20 20.45064 70.81700 37781 ft 496 kts 108°
2026-04-23 08:20 20.43968 70.85200 37550 ft 500 kts 108°
2026-04-23 08:20 20.42860 70.88737 37277 ft 502 kts 108°
2026-04-23 08:20 20.41753 70.92271 37012 ft 502 kts 108°
2026-04-23 08:21 20.40648 70.95795 36761 ft 502 kts 108°
2026-04-23 08:21 20.39542 70.99320 36505 ft 501 kts 108°
2026-04-23 08:21 20.38433 71.02851 36257 ft 501 kts 108°
2026-04-23 08:21 20.37340 71.06326 36015 ft 501 kts 108°
2026-04-23 08:22 20.36233 71.09839 35771 ft 500 kts 108°
2026-04-23 08:22 20.35130 71.13339 35535 ft 500 kts 108°
2026-04-23 08:22 20.34014 71.16874 35292 ft 500 kts 108°
2026-04-23 08:22 20.32905 71.20383 35056 ft 500 kts 108°
2026-04-23 08:23 20.31797 71.23888 34822 ft 500 kts 108°
2026-04-23 08:23 20.30690 71.27379 34598 ft 500 kts 108°
2026-04-23 08:23 20.29567 71.30910 34358 ft 500 kts 108°
2026-04-23 08:23 20.28455 71.34414 34135 ft 498 kts 108°
2026-04-23 08:24 20.27347 71.37908 33904 ft 495 kts 108°
2026-04-23 08:24 20.26250 71.41362 33644 ft 493 kts 108°
2026-04-23 08:24 20.25151 71.44817 33385 ft 491 kts 108°
2026-04-23 08:24 20.24057 71.48257 33121 ft 487 kts 108°
2026-04-23 08:25 20.22977 71.51659 32857 ft 484 kts 108°
2026-04-23 08:25 20.21775 71.55017 32602 ft 483 kts 112°
2026-04-23 08:25 20.20294 71.58216 32368 ft 481 kts 118°
2026-04-23 08:25 20.18517 71.61231 32108 ft 480 kts 124°
2026-04-23 08:26 20.16463 71.64033 31853 ft 479 kts 130°
2026-04-23 08:26 20.14215 71.66558 31626 ft 477 kts 135°
2026-04-23 08:26 20.11815 71.69008 31375 ft 476 kts 136°
2026-04-23 08:26 20.09422 71.71426 31133 ft 474 kts 135°
2026-04-23 08:27 20.07066 71.73869 30897 ft 472 kts 134°
2026-04-23 08:27 20.04749 71.76347 30658 ft 470 kts 133°
2026-04-23 08:27 20.02471 71.78844 30426 ft 468 kts 133°
2026-04-23 08:27 20.00225 71.81353 30191 ft 466 kts 132°
2026-04-23 08:28 19.98007 71.83863 29967 ft 465 kts 131°
2026-04-23 08:28 19.95806 71.86369 29698 ft 462 kts 131°
2026-04-23 08:28 19.93629 71.88860 29436 ft 460 kts 131°
2026-04-23 08:28 19.91457 71.91350 29160 ft 458 kts 131°
2026-04-23 08:29 19.89291 71.93837 28903 ft 456 kts 131°
2026-04-23 08:29 19.87154 71.96291 28632 ft 454 kts 131°
2026-04-23 08:29 19.85014 71.98749 28370 ft 452 kts 131°
2026-04-23 08:29 19.82870 72.01209 28105 ft 451 kts 131°
2026-04-23 08:30 19.80744 72.03647 27569 ft 451 kts 131°
2026-04-23 08:30 19.78612 72.06092 26987 ft 449 kts 131°
2026-04-23 08:30 19.76472 72.08479 26393 ft 445 kts 134°
2026-04-23 08:30 19.74245 72.10755 25818 ft 441 kts 135°
2026-04-23 08:31 19.72010 72.12980 25229 ft 438 kts 136°
2026-04-23 08:31 19.69778 72.15163 24580 ft 436 kts 137°
2026-04-23 08:31 19.67567 72.17306 24026 ft 433 kts 137°
2026-04-23 08:31 19.65309 72.19478 23359 ft 431 kts 137°
2026-04-23 08:32 19.63083 72.21614 22581 ft 431 kts 137°
2026-04-23 08:32 19.60916 72.23694 22152 ft 422 kts 137°
2026-04-23 08:32 19.58742 72.25765 21652 ft 415 kts 137°
2026-04-23 08:32 19.56605 72.27786 21084 ft 411 kts 138°
2026-04-23 08:33 19.54472 72.29797 20517 ft 407 kts 138°
2026-04-23 08:33 19.52361 72.31788 19966 ft 403 kts 137°
2026-04-23 08:33 19.50272 72.33760 19426 ft 399 kts 137°
2026-04-23 08:33 19.48209 72.35709 18878 ft 396 kts 137°
2026-04-23 08:34 19.46167 72.37640 18337 ft 393 kts 137°
2026-04-23 08:34 19.44136 72.39569 17745 ft 390 kts 137°
2026-04-23 08:34 19.42126 72.41475 17195 ft 385 kts 138°
2026-04-23 08:34 19.40162 72.43337 16644 ft 382 kts 138°
2026-04-23 08:35 19.38198 72.45200 16101 ft 378 kts 138°
2026-04-23 08:35 19.36250 72.47048 15573 ft 373 kts 139°
2026-04-23 08:35 19.34317 72.48885 15006 ft 371 kts 139°
2026-04-23 08:35 19.32412 72.50700 14559 ft 366 kts 139°
2026-04-23 08:36 19.30533 72.52488 14142 ft 361 kts 139°
2026-04-23 08:36 19.28676 72.54255 13734 ft 359 kts 139°
2026-04-23 08:36 19.26822 72.56017 13284 ft 355 kts 139°
2026-04-23 08:36 19.24990 72.57755 12825 ft 352 kts 140°
2026-04-23 08:37 19.23208 72.59523 12361 ft 350 kts 134°
2026-04-23 08:37 19.21864 72.61643 11928 ft 350 kts 114°
2026-04-23 08:37 19.21313 72.64110 11500 ft 351 kts 95°
2026-04-23 08:37 19.21316 72.66686 11068 ft 350 kts 89°
2026-04-23 08:38 19.21484 72.69246 10641 ft 347 kts 87°
2026-04-23 08:38 19.21667 72.71776 10224 ft 344 kts 88°
2026-04-23 08:38 19.21816 72.74301 9808 ft 341 kts 89°
2026-04-23 08:38 19.21910 72.76792 9437 ft 334 kts 90°
2026-04-23 08:39 19.21951 72.79215 9101 ft 325 kts 91°
2026-04-23 08:39 19.21954 72.81560 8825 ft 317 kts 92°
2026-04-23 08:39 19.21937 72.83876 8546 ft 308 kts 92°
2026-04-23 08:39 19.21901 72.86113 8280 ft 301 kts 93°
2026-04-23 08:40 19.21860 72.88303 8018 ft 294 kts 93°
2026-04-23 08:40 19.21822 72.90385 7760 ft 288 kts 93°
2026-04-23 08:40 19.21782 72.92484 7507 ft 284 kts 92°
2026-04-23 08:40 19.21744 72.94584 7237 ft 284 kts 92°
2026-04-23 08:41 19.21711 72.96655 6979 ft 283 kts 92°
2026-04-23 08:41 19.21681 72.98713 6725 ft 282 kts 91°
2026-04-23 08:41 19.21652 73.00783 6456 ft 280 kts 91°
2026-04-23 08:41 19.21627 73.02829 6182 ft 278 kts 91°
2026-04-23 08:42 19.21605 73.04870 5901 ft 277 kts 91°
2026-04-23 08:42 19.21581 73.06912 5602 ft 277 kts 90°
2026-04-23 08:42 19.21555 73.08947 5325 ft 277 kts 90°
2026-04-23 08:42 19.21528 73.10978 5051 ft 276 kts 90°
2026-04-23 08:43 19.21495 73.13010 4766 ft 277 kts 92°
2026-04-23 08:43 19.20999 73.14977 4481 ft 280 kts 117°
2026-04-23 08:43 19.19732 73.16515 4202 ft 280 kts 144°
2026-04-23 08:43 19.17943 73.17303 3919 ft 282 kts 171°
2026-04-23 08:44 19.16007 73.17170 3626 ft 281 kts 199°
2026-04-23 08:44 19.14351 73.16143 3354 ft 276 kts 227°
2026-04-23 08:44 19.13298 73.14475 3105 ft 273 kts 248°
2026-04-23 08:44 19.12554 73.12652 2978 ft 264 kts 250°
2026-04-23 08:45 19.11832 73.10916 2982 ft 251 kts 248°
2026-04-23 08:45 19.11053 73.09331 2959 ft 241 kts 244°
2026-04-23 08:45 19.10205 73.07834 2877 ft 233 kts 241°
2026-04-23 08:45 19.09447 73.06371 2791 ft 221 kts 256°
2026-04-23 08:46 19.09180 73.04796 2721 ft 212 kts 270°
2026-04-23 08:46 19.09134 73.03270 2736 ft 209 kts 272°
2026-04-23 08:46 19.09112 73.01757 2514 ft 200 kts 272°
2026-04-23 08:46 19.09087 73.00324 2264 ft 189 kts 273°
2026-04-23 08:47 19.09063 72.99027 2029 ft 166 kts 274°
2026-04-23 08:47 19.09046 72.97855 1824 ft 157 kts 274°
2026-04-23 08:47 19.09031 72.96724 1629 ft 149 kts 274°
2026-04-23 08:47 19.09011 72.95649 1436 ft 145 kts 275°
2026-04-23 08:48 19.08994 72.94585 1265 ft 145 kts 274°
2026-04-23 08:48 19.08983 72.93521 1079 ft 145 kts 274°
2026-04-23 08:48 19.08965 72.92458 899 ft 144 kts 274°
2026-04-23 08:48 19.08950 72.91430 737 ft 138 kts 273°
2026-04-23 08:49 19.08932 72.90425 456 ft 136 kts 269°
2026-04-23 08:49 19.08905 72.89426 343 ft 136 kts 269°
2026-04-23 08:49 19.08892 72.88425 227 ft 136 kts 269°
2026-04-23 08:49 19.08883 72.87423 62 ft 136 kts 269°
2026-04-23 08:50 19.08870 72.86554 48 ft 102 kts 269°
2026-04-23 08:50 19.08864 72.86079 52 ft 39 kts 269°
2026-04-23 08:50 19.08889 72.85940 51 ft 12 kts 304°
2026-04-23 08:50 19.08930 72.85875 50 ft 10 kts 304°
2026-04-23 08:51 19.08950 72.85844 49 ft 0 kts 304°
2026-04-23 08:51 19.08957 72.85833 52 ft 3 kts 309°
2026-04-23 08:51 19.08975 72.85820 50 ft 4 kts 345°
2026-04-23 08:51 19.09003 72.85822 48 ft 5 kts 26°
2026-04-23 08:52 19.09024 72.85856 47 ft 8 kts 77°
2026-04-23 08:52 19.09029 72.85935 54 ft 13 kts 89°
2026-04-23 08:52 19.09031 72.86042 53 ft 17 kts 89°
2026-04-23 08:52 19.09034 72.86180 53 ft 11 kts 89°
2026-04-23 08:53 19.09036 72.86252 54 ft 13 kts 89°
2026-04-23 08:53 19.09067 72.86341 50 ft 14 kts 51°
2026-04-23 08:53 19.09102 72.86387 51 ft 16 kts 51°
2026-04-23 08:54 19.09162 72.86463 48 ft 19 kts 49°
2026-04-23 08:54 19.09254 72.86576 51 ft 22 kts 49°
2026-04-23 08:54 19.09360 72.86703 48 ft 20 kts 48°
2026-04-23 08:55 19.09419 72.86785 48 ft 11 kts 90°
2026-04-23 08:55 19.09378 72.86866 50 ft 13 kts 144°
2026-04-23 08:55 19.09314 72.86928 47 ft 15 kts 133°
2026-04-23 08:55 19.09242 72.87012 47 ft 3 kts 122°
2026-04-23 08:56 19.09235 72.87046 52 ft 7 kts 95°
2026-04-23 08:56 19.09232 72.87120 54 ft 13 kts 91°
2026-04-23 08:56 19.09234 72.87222 54 ft 17 kts 88°
2026-04-23 08:56 19.09243 72.87340 48 ft 9 kts 54°
2026-04-23 08:57 19.09296 72.87363 48 ft 7 kts 356°
2026-04-23 08:57 19.09339 72.87369 49 ft 4 kts 19°
2026-04-23 08:57 19.09364 72.87368 47 ft 4 kts 334°
2026-04-23 08:57 19.09379 72.87357 48 ft 3 kts 302°
2026-04-23 08:58 19.09387 72.87340 47 ft 2 kts 300°
2026-04-23 08:58 19.09392 72.87331 50 ft 3 kts 298°
2026-04-23 08:58 19.09401 72.87311 47 ft 0 kts 298°
2026-04-23 08:59 19.09404 72.87307 47 ft 2 kts 298°
2026-04-23 09:00 19.09409 72.87298 50 ft 0 kts 298°
2026-04-23 09:00 19.09409 72.87297 50 ft 0 kts 299°